User: anonymous   Login
Location: Kitchener
(43.4500°N, 80.5000°W)
Time: 16:32:25
(UTC-04:00)
Language:

Cosmos 1939 Rocket - Orbit

View from above orbital plane
View from above orbital plane
View from above satellite
View from above satellite

Ground track
Ground track

The orbit data is extracted from the following two-line orbital elements,

1 19046U 88032B   18142.88267856 -.00000511 +00000-0 -33486-4 0  9994
2 19046 097.4797 184.0646 0036084 259.8381 099.8774 15.02412197623356
Epoch (UTC): 22 May 2018 21:11:03
Eccentricity: 0.0036084
inclination: 97.4797°
perigee height: 534 km
apogee height: 584 km
right ascension of ascending node: 184.0646°
argument of perigee: 259.8381°
revolutions per day: 15.02412197
mean anomaly at epoch: 99.8774°
orbit number at epoch: 62335

The dashed part of the orbit path shows where the satellite is in the earth's shadow,  

DLR